Tracking 20037 objects as of 20-Nov-2019
Live streaming from Space Station
objects crossing your sky now

GAOFEN 1-03

Track GAOFEN 1-03 now!
10-day predictions


NORAD ID: 43260
Int'l Code: 2018-031B
Perigee: 644.6 km
Apogee: 650.8 km
Inclination: 98.0 °
Period: 97.5 minutes
Semi major axis: 7018 km
RCS: Unknown
Launch date: March 31, 2018
Source: People's Republic of China (PRC)
Launch site: Taiyaun Space Center, China (TSC)
aabbcc
Your satellite tracking list
Your tracking list is empty




NASA's NSSDC Master Catalog

Two Line Element Set (TLE):
1 43260U 18031B   19324.67686004  .00000092  00000-0  20558-4 0  9999
2 43260  97.9849  40.7074 0004380 211.5302 148.5647 14.76441662 88466
Source of the keplerian elements: AFSPC